Tracking 27112 objects as of 27-Mar-2023
HD Live streaming from Space Station
objects crossing your sky now

STARLINK-1876

Track STARLINK-1876 now!
10-day predictions
STARLINK-1876 is classified as:


NORAD ID: 47161
Int'l Code: 2020-088AR
Perigee: 553.7 km
Apogee: 555.4 km
Inclination: 53.1 °
Period: 95.6 minutes
Semi major axis: 6925 km
RCS: Unknown
Launch date: November 25, 2020
Source: United States (US)
Launch site: AIR FORCE EASTERN TEST RANGE (AFETR)
Your satellite tracking list
Your tracking list is empty




NASA's NSSDC Master Catalog

Two Line Element Set (TLE):
1 47161U 20088AR  23085.17764541 -.00002630  00000-0 -15797-3 0  9995
2 47161  53.0529  97.7319 0001233  51.9468 308.1632 15.06342558129524
Source of the keplerian elements: AFSPC